Flag for Ecuador Weather past 2 weeks in Quito, Ecuador

Now
48 °F

Passing clouds.


Feels Like: 48 °F
Forecast: 51 / 63 °F
Wind: 2 mph from West

Location: Latacunga Airport

Current Time: Sep 19, 2014 at 3:24:41 AM

Latest Report: Sep 19, 2014 at 12:00 AM


Visibility: N/A

Pressure: 30.45 "Hg

Humidity: 100%

Dew point: 48 °F

Location of QuitoLocation

Historic Weather in Quito — Graph

°F

Quito temperature yesterday

Maximum temperature yesterday: 68 °F (at 2:00 PM)
Minimum temperature yesterday: 41 °F (at 1:00 AM)
Average temperature yesterday: 52 °F

Past Weeks' High & Low Weather Summary

 TemperatureHumidityPressure
High70 °F (Sep 17, 2:00 PM)100% (Sep 4, 1:00 AM)30.51 "Hg (Sep 4, 1:00 AM)
Low34 °F (Sep 6, 4:00 AM)40% (Sep 5, 2:00 PM)30.24 "Hg (Sep 11, 4:00 PM)
Average53 °F82%30.41 "Hg
* Reported Midnight between Sep 3 and Sep 4 — Midnight between Sep 18 and Sep 19, Quito, Weather by CustomWeather, © 2014

Note: Actual official high and low records may vary slightly from our data, if they occured in-between our weather recording intervals... More about our weather records

Advertising

Quito weather history for previous 24 hours

 ConditionsComfort  
Time TempWeatherWind HumidityBarometerVisibility
12:00 AM
Sep 19
48 °FPassing clouds.2 mph100%30.45 "HgN/A
11:00 PM
Sep 18
48 °FPassing clouds.2 mph100%30.45 "HgN/A
10:00 PM50 °FPassing clouds.2 mph100%30.45 "HgN/A
9:00 PM50 °FPassing clouds.5 mph100%30.45 "HgN/A
8:00 PM52 °FPartly cloudy.5 mph100%30.45 "HgN/A
7:00 PM50 °FScattered showers. Partly cloudy.5 mph100%30.42 "HgN/A
6:00 PM52 °FThunderstorms. Broken clouds.5 mph100%30.39 "Hg4 mi
5:00 PM54 °FThunderstorms. Broken clouds.6 mph100%30.36 "HgN/A
4:00 PM57 °FThunderstorms. Broken clouds.14 mph82%30.30 "HgN/A
3:00 PM66 °FScattered showers. Broken clouds.23 mph52%30.30 "HgN/A
2:00 PM68 °FBroken clouds.9 mph46%30.33 "HgN/A
1:00 PM66 °FBroken clouds.8 mph49%30.36 "HgN/A
12:00 PM66 °FBroken clouds.6 mph49%30.42 "HgN/A
11:00 AM61 °FPartly sunny.5 mph55%30.45 "HgN/A
10:00 AM57 °FScattered clouds.6 mph67%30.51 "HgN/A
9:00 AM55 °FPartly sunny.3 mph72%30.51 "HgN/A
8:00 AM50 °FPartly sunny.1 mph88%30.51 "Hg4 mi
7:00 AM46 °FBroken clouds.3 mph93%30.48 "Hg4 mi
6:00 AM46 °FMostly cloudy.3 mph100%30.45 "HgN/A
5:00 AM45 °FMostly cloudy.3 mph100%30.42 "HgN/A
4:00 AM45 °FMostly cloudy.5 mph100%30.42 "HgN/A
3:00 AM43 °FPassing clouds.3 mph100%30.42 "HgN/A
Weather by CustomWeather, © 2014

See weather overviewHow to use our weather pages